Weather History for KRKR - January, 2012

Change the Weather History Date:

Thursday, January 12, 2012

  Actual Average (KFSM) Record (KFSM)
Temperature  
Mean Temperature 30 °F 39 °F  
Max Temperature 35 °F 49 °F 76 °F (2000)
Min Temperature 26 °F 29 °F -11 °F (1918)
Degree Days  
Heating Degree Days 34 26  
Month to date heating degree days 312  
Since 1 July heating degree days 1611  
Moisture  
Dew Point 16 °F    
Average Humidity 54    
Maximum Humidity 93    
Minimum Humidity 38    
Precipitation  
Precipitation 0.00 in 0.09 in 1.20 in (1930)
Month to date precipitation 1.05  
Year to date precipitation 1.05  
Sea Level Pressure  
Sea Level Pressure 30.10 in    
Wind  
Wind Speed 14 mph (WNW)    
Max Wind Speed 24 mph    
Max Gust Speed 34 mph    
Visibility 10 miles    
Events Snow    
T = Trace of Precipitation, MM = Missing Value Source: NWS Daily Summary

Daily Weather History Graph

Daily Weather History Graph

Search for Another Location

Airport or City:

Trip Planner

Search our weather history database for the weather conditions in past years. The results will help you decide how hot, cold, wet, or windy it might be!

Date:

Astronomy

Jan. 12, 2012 Rise Set
Actual Time 7:26 AM CST 5:26 PM CST
Civil Twilight 6:59 AM CST 5:54 PM CST
Nautical Twilight 6:27 AM CST 6:25 PM CST
Astronomical Twilight 5:57 AM CST 6:56 PM CST
Moon 9:22 PM CST (1/12) 9:20 AM CST (1/12)
Length of Visible Light 10h 55m
Length of Day
10h 00m
Waning Gibbous, 87% of the Moon is Illuminated
Jan 12
Waning Gibbous
Jan 16
Last Quarter
Jan 23
New
Jan 30
First Quarter
Feb 7
Full

Hourly Weather History & Observations

Time (CST) Temp. Windchill Dew Point Humidity Pressure Visibility Wind Dir Wind Speed Gust Speed Precip Events Conditions
12:15 AM 33.8 °F 22.5 °F 32.0 °F 93% 29.95 in - NW 19.6 mph 26.5 mph N/A   Unknown
12:35 AM 32.0 °F 20.1 °F 30.2 °F 93% 29.96 in 7.0 mi NNW 19.6 mph 32.2 mph N/A Snow Light Snow
12:55 AM 32.0 °F 18.9 °F 28.4 °F 87% 29.96 in - NNW 24.2 mph 34.5 mph N/A   Overcast
1:15 AM 32.0 °F 23.6 °F 28.4 °F 87% 29.98 in 10.0 mi NW 10.4 mph 19.6 mph N/A   Overcast
1:35 AM 32.0 °F 20.5 °F 26.6 °F 80% 29.99 in 10.0 mi NW 18.4 mph 21.9 mph N/A   Overcast
1:55 AM 32.0 °F 22.5 °F 26.6 °F 80% 30.01 in 10.0 mi NW 12.7 mph 25.3 mph N/A   Overcast
2:15 AM 32.0 °F 21.2 °F 24.8 °F 75% 30.02 in 10.0 mi NW 16.1 mph 19.6 mph N/A   Overcast
2:35 AM 32.0 °F 23.0 °F 23.0 °F 69% 30.02 in 10.0 mi NNW 11.5 mph 29.9 mph N/A   Overcast
2:55 AM 32.0 °F 22.5 °F 23.0 °F 69% 30.03 in 10.0 mi NNW 12.7 mph 18.4 mph N/A   Overcast
3:15 AM 32.0 °F 21.2 °F 23.0 °F 69% 30.04 in 10.0 mi NNW 16.1 mph 25.3 mph N/A   Overcast
3:35 AM 32.0 °F 23.6 °F 21.2 °F 64% 30.04 in 10.0 mi NNW 10.4 mph 16.1 mph N/A   Overcast
4:15 AM 32.0 °F 23.6 °F 23.0 °F 69% 30.06 in 10.0 mi WNW 10.4 mph 17.3 mph N/A   Overcast
4:35 AM 32.0 °F 24.2 °F 23.0 °F 69% 30.07 in 10.0 mi WNW 9.2 mph 17.3 mph N/A   Overcast
4:55 AM 32.0 °F 20.1 °F 19.4 °F 60% 30.08 in 10.0 mi NW 19.6 mph 25.3 mph N/A   Overcast
5:15 AM 32.0 °F 27.5 °F 19.4 °F 60% 30.08 in 10.0 mi WNW 4.6 mph - N/A   Overcast
5:35 AM 30.2 °F 20.8 °F 17.6 °F 60% 30.08 in 10.0 mi NW 11.5 mph 17.3 mph N/A   Scattered Clouds
5:55 AM 30.2 °F 21.9 °F 17.6 °F 60% 30.09 in 10.0 mi WNW 9.2 mph 19.6 mph N/A   Unknown
6:15 AM 28.4 °F 18.0 °F 15.8 °F 59% 30.10 in 10.0 mi WNW 12.7 mph 19.6 mph N/A   Unknown
6:55 AM 28.4 °F 18.0 °F 14.0 °F 55% 30.10 in 10.0 mi WNW 12.7 mph 17.3 mph N/A   Unknown
7:15 AM 28.4 °F 18.5 °F 14.0 °F 55% 30.10 in 10.0 mi WNW 11.5 mph 25.3 mph N/A   Unknown
7:35 AM 26.6 °F 15.7 °F 8.6 °F 47% 30.11 in 10.0 mi West 12.7 mph 26.5 mph N/A   Clear
7:55 AM 26.6 °F 14.7 °F 8.6 °F 47% 30.13 in 10.0 mi WNW 15.0 mph 24.2 mph N/A   Clear
8:15 AM 26.6 °F 15.2 °F 8.6 °F 47% 30.13 in 10.0 mi NW 13.8 mph 26.5 mph N/A   Clear
8:35 AM 26.6 °F 13.4 °F 8.6 °F 47% 30.13 in 10.0 mi NW 18.4 mph 27.6 mph N/A   Clear
9:15 AM 28.4 °F 20.4 °F 8.6 °F 43% 30.14 in 10.0 mi NW 8.1 mph 24.2 mph N/A   Clear
9:35 AM 28.4 °F 18.5 °F 8.6 °F 43% 30.14 in 10.0 mi NW 11.5 mph 23.0 mph N/A   Unknown
9:55 AM 28.4 °F 18.0 °F 8.6 °F 43% 30.14 in 10.0 mi NW 12.7 mph 23.0 mph N/A   Unknown
10:15 AM 28.4 °F 17.0 °F 8.6 °F 43% 30.14 in 10.0 mi NW 15.0 mph 26.5 mph N/A   Scattered Clouds
10:35 AM 32.0 °F 19.8 °F 8.6 °F 38% 30.15 in 10.0 mi NW 20.7 mph 31.1 mph N/A   Scattered Clouds
10:55 AM 32.0 °F 19.8 °F 10.4 °F 41% 30.14 in 10.0 mi WNW 20.7 mph 25.3 mph N/A   Scattered Clouds
11:15 AM 32.0 °F 20.1 °F 10.4 °F 41% 30.14 in 10.0 mi NW 19.6 mph 26.5 mph N/A   Unknown
11:35 AM 32.0 °F 23.0 °F 10.4 °F 41% 30.13 in 10.0 mi WNW 11.5 mph 20.7 mph N/A   Clear
11:55 AM 32.0 °F 21.2 °F 10.4 °F 41% 30.13 in 10.0 mi WNW 16.1 mph 29.9 mph N/A   Scattered Clouds
12:15 PM 32.0 °F 20.5 °F 12.2 °F 44% 30.11 in 10.0 mi West 18.4 mph 27.6 mph N/A   Scattered Clouds
12:35 PM 32.0 °F 22.1 °F 12.2 °F 44% 30.11 in 10.0 mi NW 13.8 mph 26.5 mph N/A   Unknown
1:15 PM 32.0 °F 20.8 °F 12.2 °F 44% 30.10 in 10.0 mi West 17.3 mph 27.6 mph N/A   Scattered Clouds
1:35 PM 32.0 °F 23.6 °F 14.0 °F 48% 30.10 in 10.0 mi West 10.4 mph 23.0 mph N/A   Mostly Cloudy
1:55 PM 32.0 °F 22.1 °F 12.2 °F 44% 30.10 in 10.0 mi West 13.8 mph 20.7 mph N/A   Mostly Cloudy
2:15 PM 32.0 °F 20.8 °F 12.2 °F 44% 30.10 in 10.0 mi WNW 17.3 mph 25.3 mph N/A   Scattered Clouds
2:35 PM 33.8 °F 25.3 °F 14.0 °F 44% 30.10 in 10.0 mi West 11.5 mph 18.4 mph N/A   Mostly Cloudy
2:55 PM 33.8 °F 25.3 °F 14.0 °F 44% 30.10 in 10.0 mi West 11.5 mph 21.9 mph N/A   Scattered Clouds
3:15 PM 35.6 °F 26.2 °F 14.0 °F 41% 30.11 in 10.0 mi West 15.0 mph 25.3 mph N/A   Scattered Clouds
3:35 PM 35.6 °F 27.5 °F 14.0 °F 41% 30.11 in 10.0 mi West 11.5 mph 25.3 mph N/A   Unknown
3:55 PM 35.6 °F 26.6 °F 14.0 °F 41% 30.11 in 10.0 mi West 13.8 mph 23.0 mph N/A   Unknown
4:15 PM 35.6 °F 26.6 °F 14.0 °F 41% 30.12 in 10.0 mi West 13.8 mph 20.7 mph N/A   Unknown
4:35 PM 33.8 °F 25.8 °F 14.0 °F 44% 30.12 in 10.0 mi West 10.4 mph 21.9 mph N/A   Unknown
4:55 PM 33.8 °F 25.8 °F 14.0 °F 44% 30.13 in 10.0 mi West 10.4 mph 17.3 mph N/A   Unknown
5:15 PM 33.8 °F 26.4 °F 14.0 °F 44% 30.13 in 10.0 mi West 9.2 mph - N/A   Unknown
5:35 PM 32.0 °F 24.2 °F 14.0 °F 48% 30.13 in 10.0 mi West 9.2 mph - N/A   Unknown
5:55 PM 32.0 °F 26.4 °F 14.0 °F 48% 30.14 in 10.0 mi West 5.8 mph 16.1 mph N/A   Unknown
6:15 PM 32.0 °F 28.7 °F 14.0 °F 48% 30.14 in 10.0 mi WSW 3.5 mph - N/A   Unknown
6:35 PM 32.0 °F 27.5 °F 14.0 °F 48% 30.15 in 10.0 mi WSW 4.6 mph - N/A   Clear
6:55 PM 32.0 °F 27.5 °F 14.0 °F 48% 30.15 in 10.0 mi SW 4.6 mph - N/A   Clear
7:15 PM 32.0 °F 27.5 °F 14.0 °F 48% 30.15 in 10.0 mi SW 4.6 mph - N/A   Clear
7:35 PM 32.0 °F 27.5 °F 14.0 °F 48% 30.16 in 10.0 mi SW 4.6 mph - N/A   Clear
8:15 PM 32.0 °F 26.4 °F 15.8 °F 51% 30.16 in 10.0 mi SW 5.8 mph - N/A   Clear
8:35 PM 32.0 °F 26.4 °F 15.8 °F 51% 30.16 in 10.0 mi SSW 5.8 mph - N/A   Clear
8:55 PM 32.0 °F 26.4 °F 14.0 °F 48% 30.17 in 10.0 mi SW 5.8 mph - N/A   Clear
9:15 PM 32.0 °F 25.6 °F 14.0 °F 48% 30.17 in 10.0 mi SSW 6.9 mph - N/A   Clear
9:35 PM 32.0 °F 25.6 °F 14.0 °F 48% 30.17 in 10.0 mi SW 6.9 mph - N/A   Clear
9:55 PM 32.0 °F 24.8 °F 12.2 °F 44% 30.17 in 10.0 mi SW 8.1 mph - N/A   Clear
10:15 PM 32.0 °F 24.8 °F 10.4 °F 41% 30.17 in 10.0 mi SW 8.1 mph - N/A   Clear
10:35 PM 32.0 °F 24.8 °F 8.6 °F 38% 30.17 in 10.0 mi SW 8.1 mph - N/A   Clear
10:55 PM 32.0 °F 27.5 °F 6.8 °F 35% 30.17 in 10.0 mi SW 4.6 mph - N/A   Clear
11:15 PM 32.0 °F 24.8 °F 5.0 °F 32% 30.17 in 10.0 mi West 8.1 mph - N/A   Clear
11:35 PM 32.0 °F 27.5 °F 3.2 °F 30% 30.17 in 10.0 mi WSW 4.6 mph - N/A   Clear
11:55 PM 32.0 °F 26.4 °F 5.0 °F 32% 30.16 in 10.0 mi WSW 5.8 mph - N/A   Clear